This is the latest recevied weather packets stored in our database for station/object KC4GS-13. If no packets are shown the sender has not sent any weather packets the latest 10 day(s).
| Time | Temp. | Humidity | Pressure | Rain* | Wind** | Luminosity | Snow |
|---|---|---|---|---|---|---|---|
| 1788094239 | 23.89° C | 98% | 1023.9 hPa | 0 mm | - | 91 W/m² | - |
| 1788093938 | 23.89° C | 98% | 1023.7 hPa | 0 mm | - | 77 W/m² | - |
| 1788093634 | 23.89° C | 98% | 1023.6 hPa | 0 mm | - | 81 W/m² | - |
| 1788093331 | 23.89° C | 98% | 1023.6 hPa | 0 mm | - | 73 W/m² | - |
| 1788093026 | 23.33° C | 98% | 1023.7 hPa | 0 mm | - | 61 W/m² | - |
| 1788092722 | 23.33° C | 98% | 1023.4 hPa | 0 mm | - | 81 W/m² | - |
| 1788092418 | 23.89° C | 98% | 1023.5 hPa | 0 mm | - | 52 W/m² | - |
| 1788092114 | 23.33° C | 98% | 1023.4 hPa | 0 mm | - | 62 W/m² | - |
| 1788091813 | 23.33° C | 98% | 1023.6 hPa | 0 mm | - | 44 W/m² | - |
| 1788091508 | 23.33° C | 98% | 1023.4 hPa | 0 mm | - | 35 W/m² | - |
| 1788091205 | 23.33° C | 98% | 1023.4 hPa | 0 mm | - | 29 W/m² | - |
| 1788090900 | 23.33° C | 98% | 1023.6 hPa | 0 mm | - | 30 W/m² | - |
| 1788090596 | 23.33° C | 98% | 1023.4 hPa | 0 mm | - | 24 W/m² | - |
| 1788090293 | 23.33° C | 98% | 1023.4 hPa | 0 mm | - | 23 W/m² | - |
| 1788089992 | 23.33° C | 98% | 1023.3 hPa | 0 mm | - | 14 W/m² | - |
| 1788089687 | 22.78° C | 98% | 1023.1 hPa | 0 mm | - | 10 W/m² | - |
| 1788089382 | 22.78° C | 98% | 1023.1 hPa | 0 mm | - | 10 W/m² | - |
| 1788089073 | 22.78° C | 98% | 1022.8 hPa | 0 mm | - | 6 W/m² | - |
| 1788088769 | 22.78° C | 98% | 1022.9 hPa | 0 mm | - | 4 W/m² | - |
| 1788088465 | 22.78° C | 98% | 1023.1 hPa | 0 mm | - | 3 W/m² | - |
| 1788088160 | 22.78° C | 98% | 1022.9 hPa | 0 mm | - | 1 W/m² | - |
| 1788087856 | 23.33° C | 98% | 1022.6 hPa | 0 mm | - | 0 W/m² | - |
| 1788087555 | 22.78° C | 98% | 1022.9 hPa | 0 mm | - | 0 W/m² | - |
| 1788087251 | 23.33° C | 98% | 1022.7 hPa | 0 mm | - | 0 W/m² | - |
| 1788086947 | 23.33° C | 98% | 1022.6 hPa | 0 mm | - | 0 W/m² | - |
* Rain latest hour (hover to see other rain measurements)
** Current wind speed in m/s (hover to see current wind gust speed)